Weather History for Lincoln, IL

Change the Weather History Date:

Monday, March 4, 2013

  Actual Average (KSPI) Record (KSPI)
Temperature  
Mean Temperature 34 °F 38 °F  
Max Temperature 38 °F 47 °F 79 °F (1961)
Min Temperature 29 °F 28 °F -6 °F (1960)
Degree Days  
Heating Degree Days 32 28  
Month to date heating degree days 113  
Since 1 July heating degree days 4384  
Cooling Degree Days 0 0  
Month to date cooling degree days 0  
Year to date cooling degree days 0  
Moisture  
Dew Point 27 °F    
Average Humidity 76    
Maximum Humidity 85    
Minimum Humidity 69    
Precipitation  
Precipitation 0.02 in 0.08 in 1.83 in (1963)
Month to date precipitation 0.31  
Year to date precipitation 3.94  
Snow  
Snow 0.00 in 0.10 in 4.00 in (2008)
Month to date snowfall 0.5  
Since 1 July snowfall 18.6  
Snow Depth -    
Sea Level Pressure  
Sea Level Pressure 29.96 in    
Wind  
Wind Speed 10 mph (ESE)    
Max Wind Speed 22 mph    
Max Gust Speed 30 mph    
Visibility 10 miles    
Events Snow    
T = Trace of Precipitation, MM = Missing Value Source: NWS Daily Summary

Daily Weather History Graph

Daily Weather History Graph

Search for Another Location

Airport:

Trip Planner

Search our weather history database for the weather conditions in past years. The results will help you decide how hot, cold, wet, or windy it might be!

Date:

Astronomy

Mar. 04, 2013 Rise Set
Actual Time 6:25 AM CST 5:52 PM CST
Civil Twilight 5:58 AM CST 6:19 PM CST
Nautical Twilight 5:27 AM CST 6:51 PM CST
Astronomical Twilight 4:55 AM CST 7:22 PM CST
Moon 12:35 AM CST (3/4) 10:34 AM CST (3/4)
Length of Visible Light 12h 21m
Length of Day
11h 26m
Waning Gibbous, 52% of the Moon is Illuminated
Mar 4
Waning Gibbous
Mar 4
Last Quarter
Mar 11
New
Mar 19
First Quarter
Mar 27
Full

Hourly Weather History & Observations

Time (CST) Temp. Windchill Dew Point Humidity Pressure Visibility Wind Dir Wind Speed Gust Speed Precip Events Conditions
12:15 AM 29.1 °F 21.3 °F 20.7 °F 71% 30.08 in 10.0 mi ESE 8.1 mph - N/A   Clear
12:35 AM 29.1 °F 23.0 °F 21.4 °F 73% 30.08 in 10.0 mi ESE 5.8 mph - N/A   Clear
12:55 AM 29.3 °F 24.3 °F 22.1 °F 75% 30.09 in 10.0 mi ESE 4.6 mph - N/A   Clear
1:15 AM 30.2 °F 24.3 °F 23.0 °F 75% 30.09 in 10.0 mi East 5.8 mph - N/A   Scattered Clouds
1:35 AM 30.2 °F 21.9 °F 23.7 °F 77% 30.09 in 10.0 mi ESE 9.2 mph - N/A   Mostly Cloudy
1:55 AM 30.6 °F 23.8 °F 23.7 °F 76% 30.08 in 10.0 mi ESE 6.9 mph - N/A   Overcast
2:15 AM 30.6 °F 24.7 °F 23.9 °F 76% 30.08 in 10.0 mi ESE 5.8 mph - N/A   Overcast
2:35 AM 30.6 °F 23.8 °F 24.3 °F 77% 30.08 in 10.0 mi SE 6.9 mph - N/A   Overcast
2:55 AM 30.2 °F 24.3 °F 24.8 °F 80% 30.07 in 10.0 mi ESE 5.8 mph - N/A   Mostly Cloudy
3:15 AM 30.4 °F 24.5 °F 24.8 °F 80% 30.06 in 10.0 mi ESE 5.8 mph - N/A   Overcast
3:35 AM 30.2 °F 24.3 °F 24.8 °F 80% 30.06 in 10.0 mi ESE 5.8 mph - N/A   Overcast
3:55 AM 30.7 °F 23.3 °F 25.2 °F 80% 30.04 in 10.0 mi ESE 8.1 mph - N/A   Overcast
4:15 AM 30.9 °F 23.5 °F 25.3 °F 80% 30.04 in 10.0 mi ESE 8.1 mph - N/A   Overcast
4:35 AM 31.1 °F 24.5 °F 25.7 °F 80% 30.04 in 10.0 mi ESE 6.9 mph - N/A   Overcast
4:55 AM 31.1 °F 24.5 °F 25.7 °F 80% 30.03 in 10.0 mi ESE 6.9 mph - N/A   Overcast
5:15 AM 31.1 °F 23.7 °F 25.7 °F 80% 30.03 in 10.0 mi ESE 8.1 mph - N/A   Overcast
5:35 AM 31.5 °F 24.2 °F 25.5 °F 79% 30.02 in 10.0 mi ESE 8.1 mph - N/A   Overcast
5:55 AM 31.6 °F 23.1 °F 25.7 °F 79% 30.03 in 10.0 mi SE 10.4 mph - N/A   Overcast
6:15 AM 31.6 °F 23.7 °F 25.5 °F 78% 30.03 in 10.0 mi ESE 9.2 mph - N/A   Overcast
6:35 AM 31.6 °F 22.6 °F 25.7 °F 79% 30.03 in 5.0 mi SE 11.5 mph - N/A Snow Light Snow
6:55 AM 31.5 °F 23.5 °F 26.6 °F 82% 30.02 in 3.0 mi ESE 9.2 mph - N/A Snow Light Snow
7:15 AM 31.1 °F 22.4 °F 27.1 °F 85% 30.02 in 2.0 mi ESE 10.4 mph 17.3 mph N/A Snow Light Snow
7:35 AM 31.5 °F 22.3 °F 27.3 °F 85% 30.01 in 4.0 mi ESE 11.5 mph 18.4 mph N/A Snow Light Snow
7:55 AM 31.6 °F 23.7 °F 27.3 °F 84% 30.02 in 7.0 mi ESE 9.2 mph 16.1 mph N/A Snow Light Snow
8:15 AM 31.6 °F 23.7 °F 27.7 °F 85% 30.00 in 4.0 mi ESE 9.2 mph 17.3 mph N/A Snow Light Snow
8:35 AM 32.0 °F 22.1 °F 27.5 °F 83% 30.00 in 10.0 mi SE 13.8 mph 17.3 mph N/A Snow Light Snow
8:55 AM 32.0 °F 24.8 °F 27.5 °F 83% 30.00 in 10.0 mi ESE 8.1 mph 17.3 mph N/A   Overcast
9:15 AM 32.5 °F 22.7 °F 27.7 °F 82% 29.99 in 10.0 mi ESE 13.8 mph - N/A   Overcast
9:35 AM 33.4 °F 24.3 °F 27.7 °F 79% 29.99 in 10.0 mi ESE 12.7 mph 17.3 mph N/A   Overcast
9:55 AM 34.3 °F 25.5 °F 27.9 °F 77% 29.98 in 10.0 mi ESE 12.7 mph 24.2 mph 0.01 in   Overcast
10:15 AM 34.9 °F 25.7 °F 27.9 °F 76% 29.98 in 10.0 mi ESE 13.8 mph 21.9 mph N/A   Mostly Cloudy
10:35 AM 36.0 °F 27.1 °F 28.4 °F 74% 29.97 in 10.0 mi ESE 13.8 mph 23.0 mph N/A   Scattered Clouds
10:55 AM 37.2 °F 28.3 °F 28.9 °F 72% 29.96 in 10.0 mi ESE 15.0 mph 20.7 mph 0.01 in   Clear
11:15 AM 38.1 °F 29.1 °F 29.1 °F 70% 29.95 in 10.0 mi ESE 16.1 mph 23.0 mph N/A   Scattered Clouds
11:35 AM 37.9 °F 28.9 °F 29.1 °F 71% 29.95 in 10.0 mi ESE 16.1 mph 23.0 mph N/A   Mostly Cloudy
11:55 AM 38.3 °F 28.4 °F 29.3 °F 70% 29.94 in 10.0 mi East 19.6 mph 24.2 mph N/A   Scattered Clouds
12:15 PM 38.5 °F 28.3 °F 29.8 °F 71% 29.93 in 10.0 mi East 20.7 mph 27.6 mph N/A   Scattered Clouds
12:55 PM 37.4 °F 26.9 °F 28.9 °F 71% 29.90 in 10.0 mi ESE 20.7 mph 26.5 mph N/A   Mostly Cloudy
1:15 PM 38.3 °F 27.8 °F 28.9 °F 69% 29.90 in 10.0 mi East 21.9 mph 29.9 mph N/A   Mostly Cloudy
1:35 PM 38.1 °F 28.1 °F 28.8 °F 69% 29.89 in 10.0 mi East 19.6 mph 26.5 mph N/A   Scattered Clouds
1:55 PM 37.4 °F 27.2 °F 28.6 °F 70% 29.89 in 10.0 mi East 19.6 mph 23.0 mph N/A   Clear
2:15 PM 37.2 °F 26.7 °F 28.0 °F 69% 29.89 in 10.0 mi East 20.7 mph - N/A   Clear
2:35 PM 37.0 °F 27.7 °F 28.2 °F 70% 29.89 in 10.0 mi East 16.1 mph 23.0 mph N/A   Scattered Clouds
2:55 PM 36.5 °F 26.3 °F 28.2 °F 72% 29.90 in 10.0 mi East 18.4 mph - N/A   Overcast
3:15 PM 36.1 °F 26.5 °F 28.2 °F 73% 29.90 in 10.0 mi East 16.1 mph 20.7 mph N/A   Overcast
3:35 PM 36.0 °F 27.5 °F 28.2 °F 73% 29.89 in 10.0 mi East 12.7 mph 18.4 mph N/A   Overcast
3:55 PM 36.0 °F 27.5 °F 27.9 °F 72% 29.89 in 10.0 mi East 12.7 mph 21.9 mph N/A   Overcast
4:15 PM 35.8 °F 27.3 °F 28.2 °F 74% 29.90 in 10.0 mi East 12.7 mph - N/A   Overcast
4:35 PM 35.8 °F 26.9 °F 28.2 °F 74% 29.89 in 10.0 mi East 13.8 mph 17.3 mph N/A   Overcast
4:55 PM 35.8 °F 27.8 °F 28.4 °F 75% 29.89 in 10.0 mi East 11.5 mph - N/A   Overcast
5:15 PM 35.6 °F 27.1 °F 28.6 °F 76% 29.89 in 10.0 mi East 12.7 mph 16.1 mph N/A   Overcast
5:35 PM 35.6 °F 27.5 °F 28.8 °F 76% 29.89 in 10.0 mi East 11.5 mph - N/A   Overcast
5:55 PM 35.8 °F 28.8 °F 28.0 °F 73% 29.90 in 10.0 mi East 9.2 mph 16.1 mph N/A   Overcast
6:15 PM 35.8 °F 28.8 °F 28.0 °F 73% 29.90 in 10.0 mi East 9.2 mph - N/A   Overcast
6:35 PM 36.0 °F 28.5 °F 28.0 °F 73% 29.91 in 10.0 mi East 10.4 mph - N/A   Overcast
6:55 PM 36.0 °F 29.6 °F 28.4 °F 74% 29.91 in 10.0 mi East 8.1 mph - N/A   Overcast
7:15 PM 35.6 °F 28.6 °F 29.3 °F 78% 29.91 in 10.0 mi ENE 9.2 mph - N/A   Overcast
7:35 PM 35.8 °F 28.8 °F 29.5 °F 78% 29.91 in 10.0 mi ENE 9.2 mph 16.1 mph N/A   Overcast
7:55 PM 35.8 °F 28.8 °F 29.3 °F 77% 29.92 in 10.0 mi East 9.2 mph - N/A   Overcast
8:15 PM 35.6 °F 28.0 °F 30.2 °F 81% 29.92 in 10.0 mi East 10.4 mph - N/A   Overcast
8:35 PM 36.5 °F 28.7 °F 28.9 °F 74% 29.92 in 10.0 mi East 11.5 mph 17.3 mph N/A   Overcast
8:55 PM 36.5 °F 30.3 °F 29.1 °F 75% 29.91 in 10.0 mi East 8.1 mph - N/A   Overcast
9:15 PM 36.1 °F 30.6 °F 29.3 °F 76% 29.91 in 10.0 mi East 6.9 mph - N/A   Overcast
9:35 PM 35.8 °F 28.8 °F 29.8 °F 79% 29.90 in 10.0 mi East 9.2 mph - N/A   Overcast
9:55 PM 36.5 °F 29.7 °F 29.3 °F 75% 29.90 in 10.0 mi East 9.2 mph - N/A   Overcast
10:15 PM 36.5 °F 29.2 °F 29.3 °F 75% 29.90 in 10.0 mi East 10.4 mph - N/A   Overcast
10:35 PM 37.4 °F 29.8 °F 30.2 °F 75% 29.89 in 10.0 mi East 11.5 mph - N/A   Overcast
10:55 PM 36.9 °F 30.1 °F 29.1 °F 74% 29.89 in 10.0 mi East 9.2 mph - N/A   Overcast
11:15 PM 36.3 °F 28.4 °F 29.8 °F 77% 29.89 in 10.0 mi East 11.5 mph - N/A   Overcast
11:35 PM 36.5 °F 29.2 °F 30.0 °F 77% 29.88 in 10.0 mi East 10.4 mph - N/A   Overcast
11:55 PM 36.5 °F 30.3 °F 30.2 °F 78% 29.88 in 10.0 mi East 8.1 mph - N/A   Light Drizzle